TimeCST,TemperatureF,Dew PointF,Humidity,Sea Level PressureIn,VisibilityMPH,Wind Direction,Wind SpeedMPH,Gust SpeedMPH,PrecipitationIn,Events,Conditions,WindDirDegrees,DateUTC
12:13 AM,21.2,17.6,86,29.76,10.0,Calm,Calm,-,N/A,,Mostly Cloudy,0,2012-12-19 06:13:00
12:33 AM,21.2,17.6,86,29.77,10.0,Calm,Calm,-,N/A,,Mostly Cloudy,0,2012-12-19 06:33:00
12:53 AM,21.2,17.6,86,29.77,10.0,Calm,Calm,-,N/A,,Mostly Cloudy,0,2012-12-19 06:53:00
1:13 AM,21.2,17.6,86,29.77,10.0,Calm,Calm,-,N/A,,Mostly Cloudy,0,2012-12-19 07:13:00
1:33 AM,19.4,17.6,93,29.78,10.0,Calm,Calm,-,N/A,,Mostly Cloudy,0,2012-12-19 07:33:00
1:53 AM,19.4,17.6,93,29.78,10.0,Calm,Calm,-,N/A,,Mostly Cloudy,0,2012-12-19 07:53:00
2:13 AM,19.4,17.6,93,29.78,10.0,Calm,Calm,-,N/A,,Mostly Cloudy,0,2012-12-19 08:13:00
2:33 AM,21.2,17.6,86,29.79,10.0,Calm,Calm,-,N/A,,Overcast,0,2012-12-19 08:33:00
2:53 AM,21.2,17.6,86,29.79,7.0,Calm,Calm,-,N/A,,Overcast,0,2012-12-19 08:53:00
3:13 AM,21.2,17.6,86,29.79,10.0,Calm,Calm,-,N/A,,Overcast,0,2012-12-19 09:13:00
3:33 AM,21.2,17.6,86,29.79,10.0,Calm,Calm,-,N/A,,Overcast,0,2012-12-19 09:33:00
3:53 AM,19.4,17.6,93,29.79,10.0,Calm,Calm,-,N/A,,Overcast,0,2012-12-19 09:53:00
4:13 AM,19.4,17.6,93,29.79,10.0,Calm,Calm,-,N/A,,Overcast,0,2012-12-19 10:13:00
4:33 AM,21.2,17.6,86,29.79,2.0,Calm,Calm,-,N/A,Snow,Light Snow,0,2012-12-19 10:33:00
4:53 AM,21.2,17.6,86,29.79,2.5,Calm,Calm,-,N/A,Snow,Light Snow,0,2012-12-19 10:53:00
5:13 AM,21.2,17.6,86,29.80,10.0,Calm,Calm,-,N/A,,Mostly Cloudy,0,2012-12-19 11:13:00
5:33 AM,21.2,17.6,86,29.80,10.0,Calm,Calm,-,N/A,,Mostly Cloudy,0,2012-12-19 11:33:00
5:53 AM,21.2,19.4,93,29.79,10.0,Calm,Calm,-,N/A,,Overcast,0,2012-12-19 11:53:00
6:13 AM,21.2,19.4,93,29.80,10.0,Calm,Calm,-,N/A,,Overcast,0,2012-12-19 12:13:00
6:33 AM,23.0,19.4,86,29.81,10.0,Calm,Calm,-,N/A,,Mostly Cloudy,0,2012-12-19 12:33:00
6:53 AM,23.0,19.4,86,29.81,10.0,Calm,Calm,-,N/A,,Scattered Clouds,0,2012-12-19 12:53:00
7:13 AM,23.0,19.4,86,29.82,7.0,Calm,Calm,-,N/A,,Scattered Clouds,0,2012-12-19 13:13:00
7:33 AM,23.0,19.4,86,29.83,7.0,Calm,Calm,-,N/A,,Scattered Clouds,0,2012-12-19 13:33:00
7:54 AM,23.0,19.4,86,29.83,7.0,Calm,Calm,-,N/A,,Scattered Clouds,0,2012-12-19 13:54:00
8:13 AM,23.0,19.4,86,29.83,7.0,Calm,Calm,-,N/A,,Scattered Clouds,0,2012-12-19 14:13:00
8:33 AM,23.0,19.4,86,29.85,4.0,SSW,4.6,-,N/A,,Clear,210,2012-12-19 14:33:00
8:53 AM,24.8,19.4,80,29.86,4.0,SW,3.5,-,N/A,,Scattered Clouds,220,2012-12-19 14:53:00
9:13 AM,24.8,19.4,80,29.86,4.0,Calm,Calm,-,N/A,,Mostly Cloudy,0,2012-12-19 15:13:00
9:33 AM,24.8,19.4,80,29.86,4.0,SW,3.5,-,N/A,,Scattered Clouds,220,2012-12-19 15:33:00
9:53 AM,24.8,21.2,86,29.87,4.0,Calm,Calm,-,N/A,,Clear,0,2012-12-19 15:53:00
10:13 AM,26.6,21.2,80,29.87,4.0,SW,3.5,-,N/A,,Haze,230,2012-12-19 16:13:00
10:33 AM,26.6,21.2,80,29.88,4.0,SW,3.5,-,N/A,,Haze,230,2012-12-19 16:33:00
10:53 AM,26.6,21.2,80,29.87,4.0,Calm,Calm,-,N/A,,Haze,0,2012-12-19 16:53:00
11:13 AM,28.4,21.2,74,29.87,5.0,SW,3.5,-,N/A,,Haze,220,2012-12-19 17:13:00
11:33 AM,28.4,21.2,74,29.88,5.0,SSW,3.5,-,N/A,,Haze,210,2012-12-19 17:33:00
11:53 AM,28.4,21.2,74,29.87,5.0,Calm,Calm,-,N/A,,Haze,0,2012-12-19 17:53:00
12:13 PM,28.4,21.2,74,29.88,5.0,SW,3.5,-,N/A,,Haze,220,2012-12-19 18:13:00
12:33 PM,30.2,21.2,69,29.88,7.0,SW,8.1,-,N/A,,Clear,220,2012-12-19 18:33:00
12:53 PM,30.2,21.2,69,29.88,7.0,SW,8.1,-,N/A,,Clear,220,2012-12-19 18:53:00
1:14 PM,30.2,21.2,69,29.88,10.0,SSW,8.1,-,N/A,,Clear,200,2012-12-19 19:14:00
1:33 PM,30.2,21.2,69,29.89,7.0,SSW,11.5,16.1,N/A,,Clear,210,2012-12-19 19:33:00
1:53 PM,30.2,21.2,69,29.89,7.0,SSW,10.4,-,N/A,,Clear,200,2012-12-19 19:53:00
2:13 PM,30.2,21.2,69,29.89,7.0,SSW,9.2,-,N/A,,Clear,210,2012-12-19 20:13:00
2:33 PM,30.2,21.2,69,29.90,7.0,SW,9.2,-,N/A,,Clear,220,2012-12-19 20:33:00
2:53 PM,28.4,19.4,69,29.90,7.0,SW,8.1,-,N/A,,Scattered Clouds,220,2012-12-19 20:53:00
3:14 PM,28.4,19.4,69,29.91,7.0,SSW,9.2,-,N/A,,Scattered Clouds,210,2012-12-19 21:14:00
3:33 PM,28.4,19.4,69,29.91,7.0,SSW,6.9,-,N/A,,Scattered Clouds,210,2012-12-19 21:33:00
3:53 PM,28.4,19.4,69,29.91,7.0,SW,8.1,-,N/A,,Scattered Clouds,220,2012-12-19 21:53:00
4:14 PM,26.6,19.4,74,29.91,10.0,SW,5.8,-,N/A,,Clear,220,2012-12-19 22:14:00
4:33 PM,26.6,17.6,69,29.91,10.0,Calm,Calm,-,N/A,,Clear,0,2012-12-19 22:33:00
4:53 PM,24.8,17.6,74,29.91,10.0,SSW,3.5,-,N/A,,Clear,210,2012-12-19 22:53:00
5:13 PM,24.8,17.6,74,29.92,10.0,Calm,Calm,-,N/A,,Clear,0,2012-12-19 23:13:00
5:33 PM,24.8,19.4,80,29.92,10.0,Calm,Calm,-,N/A,,Scattered Clouds,0,2012-12-19 23:33:00
5:53 PM,24.8,19.4,80,29.92,10.0,Calm,Calm,-,N/A,,Scattered Clouds,0,2012-12-19 23:53:00
6:13 PM,24.8,19.4,80,29.92,10.0,Calm,Calm,-,N/A,,Scattered Clouds,0,2012-12-20 00:13:00
6:33 PM,24.8,19.4,80,29.92,10.0,Calm,Calm,-,N/A,,Scattered Clouds,0,2012-12-20 00:33:00
6:53 PM,24.8,19.4,80,29.92,10.0,Calm,Calm,-,N/A,,Scattered Clouds,0,2012-12-20 00:53:00
7:13 PM,24.8,19.4,80,29.94,10.0,Calm,Calm,-,N/A,,Clear,0,2012-12-20 01:13:00
7:33 PM,26.6,21.2,80,29.93,10.0,Calm,Calm,-,N/A,,Clear,0,2012-12-20 01:33:00
7:53 PM,26.6,21.2,80,29.92,10.0,Calm,Calm,-,N/A,,Clear,0,2012-12-20 01:53:00
8:13 PM,26.6,21.2,80,29.93,10.0,SSW,4.6,-,N/A,,Clear,210,2012-12-20 02:13:00
8:33 PM,26.6,21.2,80,29.93,10.0,SW,4.6,-,N/A,,Clear,220,2012-12-20 02:33:00
8:53 PM,26.6,21.2,80,29.94,10.0,SW,3.5,-,N/A,,Clear,220,2012-12-20 02:53:00
9:13 PM,26.6,21.2,80,29.94,10.0,Calm,Calm,-,N/A,,Clear,0,2012-12-20 03:13:00
9:33 PM,26.6,21.2,80,29.93,10.0,Calm,Calm,-,N/A,,Clear,0,2012-12-20 03:33:00
9:53 PM,26.6,21.2,80,29.94,10.0,Calm,Calm,-,N/A,,Clear,0,2012-12-20 03:53:00
10:13 PM,26.6,21.2,80,29.95,10.0,Calm,Calm,-,N/A,,Clear,0,2012-12-20 04:13:00
10:33 PM,26.6,21.2,80,29.95,10.0,Calm,Calm,-,N/A,,Clear,0,2012-12-20 04:33:00
10:53 PM,26.6,21.2,80,29.95,10.0,Calm,Calm,-,N/A,,Scattered Clouds,0,2012-12-20 04:53:00
11:13 PM,26.6,21.2,80,29.94,10.0,NW,4.6,-,N/A,,Scattered Clouds,310,2012-12-20 05:13:00
11:33 PM,26.6,19.4,74,29.93,10.0,Calm,Calm,-,N/A,,Scattered Clouds,0,2012-12-20 05:33:00
11:53 PM,26.6,17.6,69,29.92,10.0,NNW,3.5,-,N/A,,Scattered Clouds,330,2012-12-20 05:53:00